This is the latest recevied weather packets stored in our database for station/object JO1YDG-13. If no packets are shown the sender has not sent any weather packets the latest 1 day(s).
| Time | Temp. | Humidity | Pressure | Rain* | Wind** | Luminosity | Snow |
|---|---|---|---|---|---|---|---|
| 1777993083 | 12.78° C | 63% | 994.9 hPa | 0 mm | 0.45 m/s, 232° | - | - |
| 1777992783 | 12.78° C | 64% | 994.9 hPa | 0 mm | 0 m/s | - | - |
| 1777992482 | 12.78° C | 63% | 994.8 hPa | 0 mm | 0 m/s | - | - |
| 1777992182 | 12.78° C | 63% | 994.8 hPa | 0 mm | 0.45 m/s, 282° | - | - |
| 1777991882 | 12.78° C | 61% | 994.6 hPa | 0 mm | 0 m/s | - | - |
| 1777991582 | 13.33° C | 60% | 994.6 hPa | 0 mm | 0.89 m/s, 191° | - | - |
| 1777991282 | 13.33° C | 59% | 994.6 hPa | 0 mm | 0.89 m/s, 202° | - | - |
| 1777990982 | 13.33° C | 58% | 994.6 hPa | 0 mm | 0.45 m/s, 180° | - | - |
| 1777990684 | 13.89° C | 57% | 994.6 hPa | 0 mm | 1.34 m/s, 237° | - | - |
| 1777990382 | 13.89° C | 57% | 994.6 hPa | 0 mm | 0.45 m/s, 192° | - | - |
| 1777990082 | 13.89° C | 57% | 994.6 hPa | 0 mm | 0.89 m/s, 202° | - | - |
| 1777989783 | 13.89° C | 58% | 994.6 hPa | 0 mm | 1.34 m/s, 292° | - | - |
| 1777989483 | 13.89° C | 58% | 994.6 hPa | 0 mm | 0.89 m/s, 189° | - | - |
| 1777989184 | 13.89° C | 58% | 994.6 hPa | 0 mm | 0.89 m/s, 236° | - | - |
| 1777988883 | 13.89° C | 58% | 994.5 hPa | 0 mm | 0.89 m/s, 186° | - | - |
| 1777988583 | 13.89° C | 58% | 994.5 hPa | 0 mm | 0.89 m/s, 270° | - | - |
| 1777988283 | 13.89° C | 58% | 994.4 hPa | 0 mm | 0.89 m/s, 210° | - | - |
| 1777987983 | 13.89° C | 58% | 994.4 hPa | 0 mm | 0.89 m/s, 213° | - | - |
| 1777987682 | 13.89° C | 58% | 994.4 hPa | 0 mm | 1.34 m/s, 251° | - | - |
| 1777987382 | 13.89° C | 58% | 994.2 hPa | 0 mm | 1.34 m/s, 279° | - | - |
| 1777987082 | 14.44° C | 58% | 994.2 hPa | 0 mm | 0.89 m/s, 270° | - | - |
| 1777986782 | 14.44° C | 57% | 994.1 hPa | 0 mm | 0.89 m/s, 202° | - | - |
| 1777986484 | 14.44° C | 57% | 994.1 hPa | 0 mm | 0.89 m/s, 303° | - | - |
| 1777986186 | 14.44° C | 57% | 994.1 hPa | 0 mm | 1.34 m/s, 202° | - | - |
| 1777985829 | 14.44° C | 57% | 994.2 hPa | 0 mm | 0.89 m/s, 203° | - | - |
* Rain latest hour (hover to see other rain measurements)
** Current wind speed in m/s (hover to see current wind gust speed)